Lambertville, MI

2:44 PM EST on February 22, 2018 (GMT -0500)
Lambertville

Weather History for KDUH - January, 2014

Change the Weather History Date:

Tuesday, January 21, 2014

  Actual Average (KTOL) Record (KTOL)
Temperature  
Mean Temperature 8 °F -  
Max Temperature 15 °F 31 °F 70 °F (1906)
Min Temperature 0 °F 17 °F -20 °F (1984)
Degree Days  
Heating Degree Days 58    
Moisture  
Dew Point -2 °F    
Average Humidity 61    
Maximum Humidity 79    
Minimum Humidity 48    
Precipitation  
Precipitation 0.00 in - - ()
Sea Level Pressure  
Sea Level Pressure 30.12 in    
Wind  
Wind Speed 9 mph (NNW)    
Max Wind Speed 15 mph    
Max Gust Speed 21 mph    
Visibility 9 miles    
Events Snow    
Averages and records for this station are not official NWS values.
T = Trace of Precipitation, MM = Missing Value Source: NWS Daily Summary

Daily Weather History Graph

Daily Weather History Graph

Search for Another Location

Airport or City:

Trip Planner

Search our weather history database for the weather conditions in past years. The results will help you decide how hot, cold, wet, or windy it might be!

Date:

Astronomy

Jan. 21, 2014 Rise Set
Actual Time 7:56 AM EST 5:36 PM EST
Civil Twilight 7:25 AM EST 6:06 PM EST
Nautical Twilight 6:51 AM EST 6:40 PM EST
Astronomical Twilight 6:18 AM EST 7:13 PM EST
Moon 11:13 PM EST (1/21) 10:20 AM EST (1/21)
Length of Visible Light 10h 40m
Length of Day
9h 40m
Waning Gibbous, 75% of the Moon is Illuminated
Jan 21
Waning Gibbous
Jan 24
Last Quarter
Jan 30
New
Feb 6
First Quarter
Feb 14
Full

Hourly Weather History & Observations

Time (EST) Temp. Windchill Dew Point Humidity Pressure Visibility Wind Dir Wind Speed Gust Speed Precip Events Conditions
12:15 AM 15.8 °F 3.4 °F 10.4 °F 79% 30.02 in 4.0 mi NNE 10.4 mph - N/A Snow Light Snow
12:35 AM 15.8 °F 4.2 °F 10.4 °F 79% 30.02 in 5.0 mi NNE 9.2 mph - N/A Snow Light Snow
12:55 AM 14.0 °F 1.2 °F 8.6 °F 79% 30.00 in 7.0 mi NNE 10.4 mph - N/A Snow Light Snow
1:15 AM 14.0 °F 2.9 °F 8.6 °F 79% 30.00 in 10.0 mi NNE 8.1 mph 18.4 mph N/A   Scattered Clouds
1:35 AM 14.0 °F 2.9 °F 8.6 °F 79% 30.00 in 10.0 mi NNE 8.1 mph - N/A Snow Light Snow
1:55 AM 14.0 °F 2.0 °F 8.6 °F 79% 30.00 in 10.0 mi North 9.2 mph - N/A   Overcast
2:15 AM 14.0 °F 0.5 °F 8.6 °F 79% 30.00 in 10.0 mi NNE 11.5 mph 17.3 mph N/A   Overcast
2:35 AM 14.0 °F 1.2 °F 6.8 °F 73% 30.02 in 10.0 mi North 10.4 mph 19.6 mph N/A   Overcast
2:55 AM 14.0 °F 2.0 °F 6.8 °F 73% 30.03 in 7.0 mi North 9.2 mph - N/A Snow Light Snow
3:15 AM 12.2 °F 1.7 °F 5.0 °F 73% 30.04 in 3.0 mi North 6.9 mph 17.3 mph N/A Snow Light Snow
3:35 AM 12.2 °F 1.7 °F 5.0 °F 73% 30.05 in 4.0 mi North 6.9 mph 18.4 mph N/A Snow Light Snow
3:55 AM 12.2 °F -1.0 °F 3.2 °F 67% 30.04 in 5.0 mi North 10.4 mph 16.1 mph N/A Snow Light Snow
4:15 AM 10.4 °F -3.3 °F 3.2 °F 73% 30.04 in 5.0 mi North 10.4 mph - N/A Snow Light Snow
4:35 AM 10.4 °F -2.4 °F 1.4 °F 67% 30.05 in 5.0 mi North 9.2 mph 16.1 mph N/A   Haze
4:55 AM 10.4 °F -2.4 °F 1.4 °F 67% 30.05 in 10.0 mi North 9.2 mph 16.1 mph N/A   Overcast
5:15 AM 10.4 °F -1.5 °F 1.4 °F 67% 30.05 in 10.0 mi North 8.1 mph 18.4 mph N/A   Overcast
5:35 AM 10.4 °F -2.4 °F 1.4 °F 67% 30.05 in 10.0 mi North 9.2 mph 16.1 mph N/A   Overcast
5:55 AM 10.4 °F -2.4 °F 1.4 °F 67% 30.06 in 10.0 mi North 9.2 mph - N/A   Overcast
6:15 AM 8.6 °F -4.7 °F -0.4 °F 67% 30.07 in 10.0 mi North 9.2 mph - N/A   Overcast
6:35 AM 8.6 °F -3.7 °F -0.4 °F 67% 30.08 in 10.0 mi North 8.1 mph - N/A   Overcast
6:55 AM 8.6 °F -2.6 °F -2.2 °F 62% 30.09 in 10.0 mi North 6.9 mph - N/A   Overcast
7:15 AM 8.6 °F -3.7 °F -4.0 °F 57% 30.10 in 10.0 mi North 8.1 mph 16.1 mph N/A   Mostly Cloudy
7:35 AM 8.6 °F -2.6 °F -4.0 °F 57% 30.10 in 10.0 mi North 6.9 mph - N/A   Clear
7:55 AM 6.8 °F -5.9 °F -4.0 °F 61% 30.12 in 10.0 mi NNW 8.1 mph - N/A   Mostly Cloudy
8:15 AM 8.6 °F -7.0 °F -4.0 °F 57% 30.12 in 10.0 mi North 12.7 mph 16.1 mph N/A   Overcast
8:35 AM 8.6 °F -5.5 °F -5.8 °F 52% 30.13 in 10.0 mi North 10.4 mph - N/A   Overcast
8:55 AM 8.6 °F -3.7 °F -5.8 °F 52% 30.13 in 10.0 mi North 8.1 mph - N/A   Scattered Clouds
9:15 AM 8.6 °F -3.7 °F -5.8 °F 52% 30.13 in 10.0 mi North 8.1 mph 16.1 mph N/A   Scattered Clouds
9:35 AM 8.6 °F -8.3 °F -5.8 °F 52% 30.13 in 10.0 mi North 15.0 mph 19.6 mph N/A   Clear
9:55 AM 8.6 °F -6.3 °F -5.8 °F 52% 30.13 in 10.0 mi NNW 11.5 mph 20.7 mph N/A   Clear
10:15 AM 8.6 °F -6.3 °F -4.0 °F 57% 30.14 in 10.0 mi NNW 11.5 mph 17.3 mph N/A   Scattered Clouds
10:35 AM 10.4 °F -5.4 °F -4.0 °F 52% 30.14 in 10.0 mi NNW 13.8 mph 17.3 mph N/A   Clear
10:55 AM 10.4 °F -4.8 °F -4.0 °F 52% 30.14 in 10.0 mi NNW 12.7 mph - N/A   Clear
11:15 AM 10.4 °F -4.1 °F -4.0 °F 52% 30.15 in 10.0 mi NNW 11.5 mph - N/A   Clear
11:35 AM 10.4 °F -4.1 °F -2.2 °F 57% 30.15 in 10.0 mi NNW 11.5 mph - N/A   Clear
11:55 AM 10.4 °F -5.4 °F -2.2 °F 57% 30.15 in 10.0 mi NNW 13.8 mph 17.3 mph N/A   Clear
12:15 PM 12.2 °F 0.7 °F -2.2 °F 53% 30.14 in 10.0 mi North 8.1 mph - N/A   Clear
12:35 PM 12.2 °F -1.8 °F -0.4 °F 57% 30.14 in 10.0 mi North 11.5 mph - N/A   Clear
12:55 PM 12.2 °F -0.2 °F -0.4 °F 57% 30.13 in 10.0 mi North 9.2 mph - N/A   Clear
1:15 PM 12.2 °F -0.2 °F -0.4 °F 57% 30.13 in 10.0 mi North 9.2 mph - N/A   Clear
1:35 PM 12.2 °F -0.2 °F -0.4 °F 57% 30.12 in 10.0 mi NNW 9.2 mph - N/A   Clear
1:55 PM 14.0 °F 2.0 °F -0.4 °F 53% 30.12 in 10.0 mi NNW 9.2 mph - N/A   Clear
2:15 PM 14.0 °F 1.2 °F -0.4 °F 53% 30.12 in 10.0 mi NNW 10.4 mph - N/A   Clear
2:35 PM 14.0 °F 2.0 °F -0.4 °F 53% 30.12 in 10.0 mi NW 9.2 mph - N/A   Clear
2:55 PM 14.0 °F 1.2 °F -0.4 °F 53% 30.12 in 10.0 mi NNW 10.4 mph - N/A   Clear
3:15 PM 14.0 °F 0.5 °F -0.4 °F 53% 30.13 in 10.0 mi NW 11.5 mph 16.1 mph N/A   Scattered Clouds
3:35 PM 14.0 °F 2.9 °F -0.4 °F 53% 30.13 in 10.0 mi NNW 8.1 mph - N/A   Overcast
3:55 PM 14.0 °F 1.2 °F -0.4 °F 53% 30.14 in 10.0 mi NW 10.4 mph - N/A   Overcast
4:15 PM 12.2 °F -1.0 °F -0.4 °F 57% 30.15 in 10.0 mi NW 10.4 mph - N/A   Mostly Cloudy
4:35 PM 12.2 °F 0.7 °F -2.2 °F 53% 30.15 in 10.0 mi NNW 8.1 mph 16.1 mph N/A   Scattered Clouds
4:55 PM 12.2 °F 0.7 °F -4.0 °F 48% 30.16 in 10.0 mi NNW 8.1 mph - N/A   Clear
5:15 PM 10.4 °F -1.5 °F -4.0 °F 52% 30.17 in 10.0 mi NNW 8.1 mph - N/A   Clear
5:35 PM 10.4 °F 0.8 °F -4.0 °F 52% 30.18 in 10.0 mi NNW 5.8 mph - N/A   Clear
5:55 PM 8.6 °F -1.3 °F -4.0 °F 57% 30.18 in 10.0 mi NW 5.8 mph - N/A   Clear
6:15 PM 8.6 °F 0.1 °F -4.0 °F 57% 30.19 in 10.0 mi NW 4.6 mph - N/A   Clear
6:35 PM 8.6 °F 0.1 °F -4.0 °F 57% 30.19 in 10.0 mi NW 4.6 mph - N/A   Clear
6:55 PM 8.6 °F 0.1 °F -5.8 °F 52% 30.19 in 10.0 mi NW 4.6 mph - N/A   Clear
7:15 PM 6.8 °F -3.5 °F -5.8 °F 56% 30.19 in 10.0 mi NNW 5.8 mph - N/A   Clear
7:35 PM 6.8 °F -5.9 °F -5.8 °F 56% 30.19 in 10.0 mi NNW 8.1 mph - N/A   Clear
7:55 PM 6.8 °F -4.8 °F -7.6 °F 52% 30.19 in 10.0 mi NNW 6.9 mph - N/A   Clear
8:15 PM 5.0 °F -6.9 °F -7.6 °F 56% 30.19 in 10.0 mi NNW 6.9 mph - N/A   Clear
8:35 PM 5.0 °F -4.1 °F -7.6 °F 56% 30.19 in 10.0 mi NNW 4.6 mph - N/A   Clear
8:55 PM 5.0 °F -2.1 °F -7.6 °F 56% 30.18 in 10.0 mi North 3.5 mph - N/A   Clear
9:15 PM 5.0 °F - -7.6 °F 56% 30.19 in 10.0 mi Calm Calm - N/A   Clear
9:35 PM 3.2 °F - -7.6 °F 61% 30.19 in 10.0 mi Calm Calm - N/A   Clear
9:55 PM 1.4 °F - -7.6 °F 66% 30.19 in 10.0 mi Calm Calm - N/A   Clear
10:15 PM 1.4 °F - -7.6 °F 66% 30.18 in 10.0 mi Calm Calm - N/A   Clear
10:35 PM -0.4 °F - -7.6 °F 72% 30.18 in 10.0 mi Calm Calm - N/A   Clear
10:55 PM -0.4 °F - -7.6 °F 72% 30.18 in 10.0 mi Calm Calm - N/A   Clear
11:15 PM -0.4 °F - -7.6 °F 72% 30.18 in 10.0 mi Calm Calm - N/A   Clear
11:35 PM -0.4 °F - -7.6 °F 72% 30.19 in 10.0 mi Calm Calm - N/A   Clear
11:55 PM -0.4 °F - -7.6 °F 72% 30.19 in 10.0 mi Calm Calm - N/A   Clear